{"data":{"norad_id":66189,"epoch":"2026-09-20T04:03:48.435840Z","epoch_age_seconds":129010,"freshness":"FRESH","line1":"1 66189U 25243N   26263.16931060  .00015892  00000+0  48049-3 0  9993","line2":"2 66189  53.1606  60.9144 0000921  92.5371 267.5737 15.34398256 50442","mean_motion":15.34398256,"eccentricity":9.21e-5,"inclination_deg":53.1606,"raan_deg":60.9144,"arg_perigee_deg":92.5371,"mean_anomaly_deg":267.5737,"bstar":0.00048049,"rev_number":5044,"period_min":93.847864748877,"perigee_km":462.07838188402,"apogee_km":463.33846561107,"semimajor_km":6840.8454237475,"source":"CELESTRAK","updated_at":"2026-09-21T09:00:35.835856Z"}}